Location: Forst
(46.9333°N, 15.4333°E)
Time: 20:54:30
(UTC+00:00)

NOAA 11 - Pass Details

Date: 01 December 2020
Orbit: 833 x 849 km, 98.4° (Epoch: 27 January)

Event Time Altitude Azimuth Distance (km) Brightness Sun altitude
Rises 16:00:27 0° 146° (SE) 3,371 7.2 -8.3°
Reaches altitude 10° 16:02:52 10° 140° (SE) 2,442 6.4 -8.6°
Maximum altitude 16:08:01 47° 68° (ENE) 1,106 4.4 -9.5°
Drops below altitude 10° 16:13:13 10° 357° (N) 2,466 6.5 -10.3°
Sets 16:15:39 0° 351° (N) 3,407 7.2 -10.7°
